GW1374 Weather Reports


time (UTC)temp
C
wind
direction
speed
KPH
gust
KPH
rain 1hr
cm
rain 24hr
cm
rain mn
cm
humidity
%
barometer
mb
20260505064547 15 219 4.8 11.3 0.00 0.00 0.00 58 1005.8
20260505063044 15 221 3.2 11.3 0.00 0.00 0.00 57 1005.8
20260505061603 15 221 3.2 8.0 0.00 0.00 0.00 57 1005.6
20260505060052 15 178 3.2 8.0 0.00 0.00 0.00 56 1005.8
20260505054556 15 219 3.2 8.0 0.00 0.00 0.00 56 1005.8
20260505053047 15 217 4.8 8.0 0.00 0.00 0.00 55 1006.0
20260505051545 15 225 3.2 9.7 0.00 0.00 0.00 54 1005.9
20260505041546 16 221 3.2 8.0 0.00 0.00 0.00 53 1005.9
20260505040049 16 209 3.2 9.7 0.00 0.00 0.00 53 1005.8
20260505034545 16 225 3.2 8.0 0.00 0.00 0.00 53 1005.8
20260505033049 16 231 3.2 8.0 0.00 0.00 0.00 52 1005.9
20260505031540 16 210 3.2 8.0 0.00 0.00 0.00 51 1005.8
20260505030049 16 215 4.8 8.0 0.00 0.00 0.00 50 1005.8
20260505024604 16 236 3.2 9.7 0.00 0.00 0.00 49 1005.8
20260505023049 16 219 3.2 8.0 0.00 0.00 0.00 49 1005.9
20260505021603 16 232 3.2 9.7 0.00 0.00 0.00 48 1006.1
20260505020046 17 190 3.2 8.0 0.00 0.00 0.00 47 1006.0
20260505014549 17 218 3.2 9.7 0.00 0.00 0.00 47 1006.0
20260505013047 17 221 4.8 8.0 0.00 0.00 0.00 47 1005.9
20260505011551 17 213 3.2 8.0 0.00 0.00 0.00 46 1005.8
20260505010054 17 205 3.2 8.0 0.00 0.00 0.00 46 1005.7
20260505004549 17 215 3.2 8.0 0.00 0.00 0.00 45 1005.5
20260505003050 17 201 3.2 8.0 0.00 0.00 0.00 45 1005.5
20260505001550 17 201 3.2 6.4 0.00 0.00 0.00 44 1005.3
20260505000048 18 209 3.2 9.7 0.00 0.00 0.00 42 1005.3
20260504234547 18 196 4.8 11.3 0.00 0.00 0.00 41 1005.0
20260504233055 19 225 3.2 9.7 0.00 0.00 0.00 40 1004.8
20260504231547 19 243 4.8 9.7 0.00 0.00 0.00 39 1004.8
20260504230051 19 210 4.8 9.7 0.00 0.00 0.00 38 1004.7
20260504224547 20 178 4.8 12.9 0.00 0.00 0.00 36 1004.8
20260504223053 20 247 1.6 9.7 0.00 0.00 0.00 33 1004.8
20260504221551 21 232 3.2 8.0 0.00 0.00 0.00 32 1004.6
20260504220104 21 247 3.2 11.3 0.00 0.00 0.00 33 1004.8
20260504214547 21 219 3.2 11.3 0.00 0.00 0.00 34 1004.8
20260504213040 21 165 4.8 12.9 0.00 0.00 0.00 33 1004.9
20260504211547 21 219 3.2 16.1 0.00 0.00 0.00 34 1004.8
20260504210040 20 360 4.8 11.3 0.00 0.00 0.00 37 1005.0
20260504204558 20 244 6.4 14.5 0.00 0.00 0.00 36 1005.1
20260504203046 20 187 3.2 12.9 0.00 0.00 0.00 38 1005.3
20260504201551 19 215 4.8 11.3 0.00 0.00 0.00 37 1005.6
20260504200044 19 227 6.4 12.9 0.00 0.00 0.00 37 1005.8
20260504194544 20 298 6.4 14.5 0.00 0.00 0.00 36 1006.0
20260504193051 19 257 4.8 16.1 0.00 0.00 0.00 37 1006.0
20260504191544 20 259 3.2 12.9 0.00 0.00 0.00 38 1006.1
20260504190047 20 255 4.8 16.1 0.00 0.00 0.00 37 1006.2
20260504184552 19 203 6.4 12.9 0.00 0.00 0.00 39 1006.3
20260504183040 19 228 3.2 12.9 0.00 0.00 0.00 40 1006.6
20260504181544 19 225 3.2 12.9 0.00 0.00 0.00 39 1006.6
20260504180048 19 235 4.8 17.7 0.00 0.00 0.00 38 1006.7
20260504174546 18 239 8.0 17.7 0.00 0.00 0.00 39 1006.7
20260504173042 19 210 4.8 11.3 0.00 0.00 0.00 40 1006.9
20260504171546 18 269 6.4 14.5 0.00 0.00 0.00 39 1006.9
20260504081548 6 238 1.6 4.8 0.00 0.00 0.00 62 1009.6